Weather History for Guernsey, United Kingdom

Change the Weather History Date:

Thursday, March 7, 2013

  Actual Average Record
Temperature  
Mean Temperature 50 °F -  
Max Temperature 51 °F 49 °F 55 °F (2001)
Min Temperature 48 °F 42 °F 33 °F (2005)
Degree Days  
Heating Degree Days 16    
Moisture  
Dew Point 49 °F    
Average Humidity 97    
Maximum Humidity 100    
Minimum Humidity 88    
Precipitation  
Precipitation 0.24 in - - ()
Sea Level Pressure  
Sea Level Pressure 29.35 in    
Wind  
Wind Speed 8 mph ()    
Max Wind Speed 13 mph    
Max Gust Speed -    
Visibility 2.2 miles    
Events Fog , Rain    
Averages and records for this station are not official NWS values.
T = Trace of Precipitation, MM = Missing Value Source: Averaged Metar Reports

Daily Weather History Graph

Daily Weather History Graph

Search for Another Location

Airport:

Trip Planner

Search our weather history database for the weather conditions in past years. The results will help you decide how hot, cold, wet, or windy it might be!

Date:

Astronomy

Mar. 07, 2013 Rise Set
Actual Time 6:40 AM GMT 6:02 PM GMT
Civil Twilight 6:08 AM GMT 6:34 PM GMT
Nautical Twilight 5:31 AM GMT 7:11 PM GMT
Astronomical Twilight 4:54 AM GMT 7:49 PM GMT
Moon 3:49 AM GMT (3/7) 1:14 PM GMT (3/7)
Length of Visible Light 12h 26m
Length of Day
11h 22m
Waning Crescent, 22% of the Moon is Illuminated
Mar 7
Waning Crescent
Mar 11
New
Mar 19
First Quarter
Mar 27
Full
Apr 3
Last Quarter

Hourly Weather History & Observations

Time (GMT) Temp. Dew Point Humidity Pressure Visibility Wind Dir Wind Speed Gust Speed Precip Events Conditions
12:00 AM 50 °F 49 °F 95% 29.43 in 9 mi ESE 8.1 mph - - Rain Light Rain
3:00 AM 50 °F 49 °F 97% 29.40 in 2 mi ESE 9.2 mph - -   Mist
3:50 AM 48.2 °F 48.2 °F 100% 29.39 in 0.4 mi SE 9.2 mph - N/A Rain Light Rain
4:20 AM 48.2 °F 48.2 °F 100% 29.39 in 0.1 mi SE 10.4 mph - N/A Fog , Rain Rain
4:50 AM 50.0 °F 50.0 °F 100% 29.36 in 0.1 mi ESE 10.4 mph - N/A Fog Light Drizzle
5:20 AM 48.2 °F 48.2 °F 100% 29.36 in 0.2 mi ESE 11.5 mph - N/A Fog Fog
5:50 AM 48.2 °F 48.2 °F 100% 29.36 in 0.1 mi SE 10.4 mph - N/A Fog Fog
6:00 AM 48 °F 48 °F 100% 29.39 in 0 mi SE 10.4 mph - - Fog Partial Fog
6:20 AM 48.2 °F 48.2 °F 100% 29.36 in 0.1 mi SE 11.5 mph - N/A Fog Fog
6:50 AM 48.2 °F 48.2 °F 100% 29.36 in 0.1 mi SE 11.5 mph - N/A Fog Fog
7:20 AM 48.2 °F 48.2 °F 100% 29.36 in 0.1 mi SE 9.2 mph - N/A Fog Fog
7:50 AM 48.2 °F 48.2 °F 100% 29.36 in 0.2 mi SE 11.5 mph - N/A Fog Fog
8:20 AM 48.2 °F 48.2 °F 100% 29.36 in 0.1 mi SE 12.7 mph - N/A Fog , Rain Rain
8:50 AM 48.2 °F 48.2 °F 100% 29.36 in 0.1 mi SE 11.5 mph - N/A Fog , Rain Light Rain
9:00 AM 48 °F 48 °F 100% 29.39 in 0 mi SE 11.5 mph - - Rain Light Rain
9:20 AM 48.2 °F 48.2 °F 100% 29.36 in 0.1 mi SE 10.4 mph - N/A Fog Light Drizzle
9:50 AM 48.2 °F 48.2 °F 100% 29.36 in 0.1 mi SE 11.5 mph - N/A Fog , Rain Heavy Rain
10:20 AM 48.2 °F 48.2 °F 100% 29.36 in 0.1 mi SE 10.4 mph - N/A Fog , Rain Rain
10:50 AM 48.2 °F 48.2 °F 100% 29.36 in 0.1 mi SE 9.2 mph - N/A Fog , Rain Light Rain
11:20 AM 48.2 °F 48.2 °F 100% 29.36 in 0.1 mi SE 8.1 mph - N/A Fog Fog
11:50 AM 48.2 °F 48.2 °F 100% 29.33 in 0.1 mi ESE 6.9 mph - N/A Fog Fog
12:00 PM 48 °F 48 °F 100% 29.36 in 0 mi ESE 6.9 mph - - Fog Partial Fog
12:20 PM 48.2 °F 48.2 °F 100% 29.33 in 0.2 mi SE 5.8 mph - N/A Fog Fog
12:50 PM 48.2 °F 48.2 °F 100% 29.33 in 0.2 mi ESE 8.1 mph - N/A Fog Fog
1:20 PM 50.0 °F 50.0 °F 100% 29.33 in 0.6 mi SE 8.1 mph - N/A Fog Patches of Fog
1:50 PM 50.0 °F 50.0 °F 100% 29.33 in 0.9 mi SE 8.1 mph - N/A Fog Patches of Fog
2:20 PM 50.0 °F 50.0 °F 100% 29.33 in 1.6 mi SE 5.8 mph - N/A Fog Mostly Cloudy
2:50 PM 50.0 °F 50.0 °F 100% 29.33 in 2.8 mi SE 8.1 mph - N/A Rain Light Rain
3:00 PM 51 °F 50 °F 95% 29.33 in 1 mi SE 8.1 mph - - Rain Light Rain
3:20 PM 50.0 °F 48.2 °F 94% 29.33 in 3.1 mi SE 8.1 mph - N/A   Mostly Cloudy
3:50 PM 50.0 °F 50.0 °F 100% 29.30 in 3.1 mi SE 8.1 mph - N/A   Mostly Cloudy
4:20 PM 51.8 °F 50.0 °F 94% 29.30 in 6.2 mi SE 8.1 mph - N/A   Scattered Clouds
4:50 PM 50.0 °F 48.2 °F 94% 29.30 in 6.2 mi SE 8.1 mph - N/A   Partly Cloudy
5:20 PM 50.0 °F 48.2 °F 94% 29.30 in 6.2 mi SSE 8.1 mph - N/A   Partly Cloudy
5:50 PM 50.0 °F 48.2 °F 94% 29.33 in 6.2 mi SSE 6.9 mph - N/A   Partly Cloudy
6:00 PM 50 °F 48 °F 91% 29.33 in 7 mi SSE 6.9 mph - -   Partly Cloudy
6:20 PM 50.0 °F 48.2 °F 94% 29.33 in 6.2 mi SSE 8.1 mph - N/A   Partly Cloudy
6:50 PM 50.0 °F 48.2 °F 94% 29.33 in 6.2 mi SSE 10.4 mph - N/A   Partly Cloudy
7:20 PM 51.8 °F 48.2 °F 88% 29.33 in 6.2 mi South 8.1 mph - N/A   Partly Cloudy
7:50 PM 51.8 °F 48.2 °F 88% 29.33 in - South 8.1 mph - N/A   Clear
8:20 PM 51.8 °F 50.0 °F 94% 29.33 in - SSE 8.1 mph - N/A   Clear
8:50 PM 51.8 °F 48.2 °F 88% 29.33 in - SSE 4.6 mph - N/A   Clear
9:00 PM 51 °F 49 °F 90% 29.35 in 12 mi SSE 4.6 mph - -   Scattered Clouds
9:20 PM 51.8 °F 48.2 °F 88% 29.33 in - SSE 6.9 mph - N/A   Clear
9:50 PM 50.0 °F 48.2 °F 94% 29.33 in - SSE 4.6 mph - N/A   Clear